Regional Weather Roundup
Issued by NWS Albany, NY

Home | Current Version | Previous Version | Text Only | Print | Product List | Glossary On
Versions: 1 2 3 4 5 6 7 8 9 10 11 12 13 14 15 16 17 18 19 20 21 22 23 24 25 26 27 28 29 30 31 32 33 34 35 36 37 38 39 40 41 42 43 44 45 46 47 48 49 50
000
ASUS41 KALY 010510
RWRALY

NEW YORK STATE HOURLY WEATHER ROUNDUP
NATIONAL WEATHER SERVICE ALBANY NY
100 AM EDT MON SEP 01 2014

NOTE: "FAIR" INDICATES FEW OR NO CLOUDS BELOW 12,000 FEET WITH NO
SIGNIFICANT WEATHER AND/OR NO OBSTRUCTIONS TO VISIBILITY.

NYZ032-033-038>043-046>054-057>066-NYZ062>081-010600-
EAST


CITY           SKY/WX    TMP DP  RH WIND       PRES   REMARKS
ALBANY         PTCLDY    72  70  93 S7        29.97R
GLENS FALLS    PTCLDY    69  68  96 CALM      29.95S FOG
POUGHKEEPSIE   MOCLDY    72  70  93 VRB3      29.98S
NEWBURGH       MOCLDY    70  70 100 VRB3      30.02R
MONTGOMERY     MOCLDY    69  68  96 CALM      30.00S FOG
WHITE PLAINS   MOCLDY    74  72  93 SW3       30.00S
ISLIP          CLOUDY    75  72  90 SW7       29.99S
NEW YORK CITY  CLOUDY    78  71  79 SW7       30.00R
CENTRAL PARK   CLOUDY    76  71  85 VRB3      30.03S
$$

NYZ005>009-017-018-044>046-055-056-010600-
CENTRAL


CITY           SKY/WX    TMP DP  RH WIND       PRES   REMARKS
FULTON         PTCLDY    69  66  90 S5        29.96S
SYRACUSE       PTCLDY    69  66  90 CALM      29.96S
ROME           MOCLDY    67  66  97 CALM      29.99R
ELMIRA         PTCLDY    68  66  94 CALM      30.00S FOG
BINGHAMTON     PTCLDY    68  66  93 SW7       30.03S
MONTICELLO     CLOUDY    66  64  94 CALM      30.05S
$$

NYZ026>034-041>043-010600-
NORTH


CITY           SKY/WX    TMP DP  RH WIND       PRES   REMARKS
WATERTOWN      CLOUDY    73  66  78 SW10      29.94S
FORT DRUM      NOT AVBL
MASSENA        CLEAR     66  66 100 SW6       29.92R FOG
SARANAC LAKE   MOCLDY    66  65  96 SW6       29.97S FOG
PLATTSBURGH    PTCLDY    70  67  90 CALM      29.91R
$$

NYZ001>004-010>016-019>021-010600-
WEST


CITY           SKY/WX    TMP DP  RH WIND       PRES   REMARKS
NIAGARA FALLS  CLEAR     69  67  93 SW6       29.96S FOG
BUFFALO        PTCLDY    69  67  93 S5        29.97S FOG
DUNKIRK        CLEAR     71  68  90 S13G25    29.97F
JAMESTOWN      CLOUDY    66  66 100 SW6       30.03F
WELLSVILLE     CLOUDY    68  66  93 SW7       30.07S
ROCHESTER      CLEAR     69  66  90 SW5       29.97R
PENN YAN       CLEAR     68  66  93 SW7       30.00S
$$

             KEY
       WCI = WIND CHILL INDEX
       VSB = VISIBILITY
       HX  = HEAT INDEX
$$



USA.gov is the U.S. government's official web portal to all federal, state and local government web resources and services.